DAL45 EHAM-KATL

Flight info

Callsign DAL45
Flight time N/A
Altitude 40000
Route EHAM BERGI L602 NALAX L46 GETNO NIBOG RESNO 56N020W 56N030W 56N040W 55N050W LOMSI N662C TOPPS ENE BAF Q448 PTW J48 MOL FLASK KATL
Aircraft B77L/H-VGDW/C

Departure

Time 2026-05-04 09:08
Airport Amsterdam Airport Schiphol (EHAM)

Arrival

Time N/A
Airport Hartsfield Jackson Atlanta International Airport (KATL)
Time Latitude Longitude Altitude Speed Heading
2026-05-04 08:40 52.30979 4.76927 18 ft 0 kts 137°
2026-05-04 08:53 52.30980 4.76926 18 ft 1 kts 137°
2026-05-04 08:54 52.31007 4.76786 18 ft 3 kts 32°
2026-05-04 08:55 52.30995 4.76774 18 ft 1 kts 34°
2026-05-04 08:55 52.30992 4.76771 18 ft 0 kts 34°
2026-05-04 09:01 52.31462 4.77203 18 ft 3 kts
2026-05-04 09:01 52.31493 4.77205 18 ft 6 kts
2026-05-04 09:01 52.31536 4.77213 18 ft 6 kts 17°
2026-05-04 09:01 52.31566 4.77262 18 ft 6 kts 65°
2026-05-04 09:02 52.31585 4.77323 18 ft 6 kts 59°
2026-05-04 09:02 52.31607 4.77380 18 ft 6 kts 57°
2026-05-04 09:02 52.31628 4.77433 18 ft 6 kts 58°
2026-05-04 09:02 52.31648 4.77486 18 ft 5 kts 58°
2026-05-04 09:03 52.31668 4.77537 18 ft 5 kts 58°
2026-05-04 09:03 52.31687 4.77586 18 ft 5 kts 57°
2026-05-04 09:03 52.31706 4.77632 18 ft 5 kts 56°
2026-05-04 09:03 52.31736 4.77677 18 ft 7 kts 27°
2026-05-04 09:04 52.31783 4.77695 18 ft 7 kts
2026-05-04 09:04 52.31831 4.77701 18 ft 7 kts
2026-05-04 09:04 52.31877 4.77704 18 ft 7 kts
2026-05-04 09:04 52.31926 4.77709 18 ft 7 kts
2026-05-04 09:05 52.31972 4.77715 18 ft 7 kts 11°
2026-05-04 09:05 52.32014 4.77744 18 ft 7 kts 31°
2026-05-04 09:05 52.32050 4.77790 18 ft 7 kts 41°
2026-05-04 09:05 52.32086 4.77842 18 ft 7 kts 41°
2026-05-04 09:06 52.32117 4.77903 18 ft 7 kts 63°
2026-05-04 09:07 52.29431 4.77760 76 ft 209 kts 181°
2026-05-04 09:08 52.27897 4.77686 626 ft 224 kts 180°
2026-05-04 09:08 52.26333 4.77677 1620 ft 226 kts 180°
2026-05-04 09:08 52.24764 4.77800 2538 ft 227 kts 168°
2026-05-04 09:08 52.23301 4.78914 2929 ft 240 kts 147°
2026-05-04 09:09 52.21858 4.80317 3263 ft 251 kts 163°
2026-05-04 09:09 52.20112 4.80555 3668 ft 255 kts 191°
2026-05-04 09:09 52.18504 4.79382 4229 ft 258 kts 218°
2026-05-04 09:09 52.17423 4.77085 4922 ft 256 kts 245°
2026-05-04 09:10 52.17141 4.74247 5639 ft 258 kts 272°
2026-05-04 09:10 52.17709 4.71462 6217 ft 266 kts 298°
2026-05-04 09:10 52.18966 4.69208 6818 ft 272 kts 313°
2026-05-04 09:10 52.20185 4.66884 7366 ft 270 kts 295°
2026-05-04 09:11 52.20814 4.64018 7949 ft 269 kts 282°
2026-05-04 09:11 52.21300 4.61037 8506 ft 273 kts 284°
2026-05-04 09:11 52.21905 4.58098 9134 ft 276 kts 292°
2026-05-04 09:11 52.22951 4.55488 9674 ft 283 kts 308°
2026-05-04 09:12 52.24437 4.53319 10251 ft 289 kts 319°
2026-05-04 09:12 52.26166 4.51457 10702 ft 300 kts 324°
2026-05-04 09:14 52.42040 4.41231 13026 ft 396 kts 348°
2026-05-04 09:14 52.44785 4.40639 13629 ft 400 kts 351°
2026-05-04 09:14 52.47575 4.40178 14233 ft 404 kts 352°
2026-05-04 09:14 52.50388 4.39769 14816 ft 407 kts 352°
2026-05-04 09:15 52.53220 4.39342 15402 ft 411 kts 352°
2026-05-04 09:15 52.56079 4.38896 15982 ft 414 kts 352°
2026-05-04 09:15 52.58961 4.38440 16521 ft 418 kts 352°
2026-05-04 09:15 52.61868 4.37977 17081 ft 421 kts 351°
2026-05-04 09:17 52.80552 4.19630 20910 ft 420 kts 295°
2026-05-04 09:18 52.81943 4.15365 21352 ft 423 kts 294°
2026-05-04 09:18 52.83365 4.11067 21793 ft 427 kts 295°
2026-05-04 09:18 52.84796 4.06827 22276 ft 428 kts 295°
2026-05-04 09:18 52.86250 4.02496 22702 ft 431 kts 295°
2026-05-04 09:19 52.87707 3.98131 23120 ft 435 kts 295°
2026-05-04 09:19 52.89173 3.93726 23522 ft 438 kts 295°
2026-05-04 09:19 52.90642 3.89303 23946 ft 440 kts 295°
2026-05-04 09:19 52.92124 3.84832 24357 ft 443 kts 295°
2026-05-04 09:20 52.93609 3.80350 24794 ft 445 kts 295°
2026-05-04 09:20 52.95103 3.75840 25257 ft 444 kts 295°
2026-05-04 09:20 52.96575 3.71399 26007 ft 439 kts 295°
2026-05-04 09:20 52.98062 3.66903 26223 ft 446 kts 295°
2026-05-04 09:21 52.99544 3.62438 26539 ft 449 kts 295°
2026-05-04 09:21 53.01049 3.57885 26908 ft 451 kts 295°
2026-05-04 09:21 53.02563 3.53295 27268 ft 454 kts 295°
2026-05-04 09:21 53.04100 3.48679 27631 ft 456 kts 295°
2026-05-04 09:22 53.05619 3.44053 27985 ft 458 kts 295°
2026-05-04 09:22 53.07146 3.39373 28318 ft 461 kts 295°
2026-05-04 09:22 53.08576 3.34606 28645 ft 460 kts 290°
2026-05-04 09:22 53.09696 3.29618 28948 ft 461 kts 286°
2026-05-04 09:23 53.10674 3.24531 29250 ft 462 kts 284°
2026-05-04 09:23 53.11535 3.19370 29563 ft 463 kts 282°
2026-05-04 09:23 53.12273 3.14219 29913 ft 463 kts 280°
2026-05-04 09:23 53.12947 3.08997 30365 ft 460 kts 279°
2026-05-04 09:25 53.17731 2.72472 32538 ft 461 kts 280°
2026-05-04 09:25 53.18392 2.67242 32798 ft 461 kts 280°
2026-05-04 09:26 53.19053 2.62007 33028 ft 462 kts 280°
2026-05-04 09:26 53.19491 2.58535 33060 ft 463 kts 280°
2026-05-04 09:26 53.20821 2.48009 33047 ft 463 kts 281°
2026-05-04 09:27 53.22137 2.37460 33048 ft 463 kts 281°
2026-05-04 09:27 53.23434 2.26927 33049 ft 464 kts 281°
2026-05-04 09:28 53.24719 2.16407 33050 ft 465 kts 281°
2026-05-04 09:28 53.26005 2.05822 33051 ft 465 kts 281°
2026-05-04 09:29 53.27396 1.95234 33054 ft 466 kts 282°
2026-05-04 09:29 53.28720 1.84570 33055 ft 471 kts 281°
2026-05-04 09:30 53.29989 1.73799 33055 ft 472 kts 281°
2026-05-04 09:30 53.31253 1.63022 33054 ft 472 kts 281°
2026-05-04 09:31 53.32510 1.52314 33055 ft 472 kts 281°
2026-05-04 09:31 53.33919 1.41569 33056 ft 472 kts 284°
2026-05-04 09:32 53.35525 1.30896 33056 ft 473 kts 284°
2026-05-04 09:34 53.41711 0.87883 33060 ft 477 kts 285°
2026-05-04 09:34 53.43313 0.77072 33062 ft 478 kts 284°
2026-05-04 09:35 53.44800 0.66175 33063 ft 480 kts 284°
2026-05-04 09:35 53.46278 0.55288 33064 ft 481 kts 284°
2026-05-04 09:37 53.51505 0.16681 33583 ft 486 kts 285°
2026-05-04 09:37 53.52243 0.11142 33826 ft 486 kts 285°
2026-05-04 09:38 53.52974 0.05668 34042 ft 486 kts 285°
2026-05-04 09:38 53.53737 0.00121 34069 ft 486 kts 285°
2026-05-04 09:38 53.55201 -0.11027 34075 ft 491 kts 285°
2026-05-04 09:39 53.56658 -0.22298 34080 ft 493 kts 285°
2026-05-04 09:39 53.58114 -0.33574 34081 ft 492 kts 285°
2026-05-04 09:40 53.59617 -0.44823 34081 ft 492 kts 285°
2026-05-04 09:40 53.61061 -0.56082 34080 ft 492 kts 285°
2026-05-04 09:42 53.66721 -1.01275 34060 ft 494 kts 285°
2026-05-04 09:43 53.68107 -1.12634 34057 ft 494 kts 285°
2026-05-04 09:43 53.69455 -1.23924 34058 ft 494 kts 285°
2026-05-04 09:44 53.70810 -1.35318 34060 ft 495 kts 285°
2026-05-04 09:46 53.75973 -1.80938 34076 ft 496 kts 284°
2026-05-04 09:46 53.77177 -1.92429 34075 ft 496 kts 284°
2026-05-04 09:47 53.78367 -2.03879 34074 ft 496 kts 284°
2026-05-04 09:49 53.83236 -2.49757 34083 ft 496 kts 284°
2026-05-04 09:51 53.87282 -2.90071 34082 ft 495 kts 283°
2026-05-04 09:51 53.88452 -3.01577 34082 ft 495 kts 283°
2026-05-04 09:52 53.89591 -3.13041 34081 ft 495 kts 283°
2026-05-04 09:52 53.90670 -3.24588 34083 ft 495 kts 282°
2026-05-04 09:53 53.91746 -3.36143 34079 ft 496 kts 282°
2026-05-04 09:53 53.92851 -3.47688 34076 ft 495 kts 285°
2026-05-04 09:54 53.94602 -3.58955 34077 ft 492 kts 291°
2026-05-04 09:54 53.96755 -3.69866 34077 ft 490 kts 293°
2026-05-04 09:55 53.98947 -3.80842 34076 ft 489 kts 292°
2026-05-04 09:55 54.01065 -3.91839 34077 ft 489 kts 292°
2026-05-04 09:56 54.03147 -4.02865 34078 ft 490 kts 292°
2026-05-04 09:56 54.05292 -4.13880 34079 ft 490 kts 293°
2026-05-04 09:57 54.07428 -4.24813 34080 ft 489 kts 292°
2026-05-04 09:57 54.09524 -4.35824 34082 ft 488 kts 292°
2026-05-04 09:58 54.11594 -4.46851 34082 ft 488 kts 292°
2026-05-04 09:58 54.13645 -4.57873 34085 ft 487 kts 291°
2026-05-04 10:00 54.21693 -5.01780 34086 ft 484 kts 291°
2026-05-04 10:04 54.35398 -5.79099 34106 ft 488 kts 290°
2026-05-04 10:04 54.37330 -5.90278 34107 ft 488 kts 290°
2026-05-04 10:05 54.39251 -6.01456 34109 ft 488 kts 290°
2026-05-04 10:05 54.41160 -6.12639 34113 ft 488 kts 290°
2026-05-04 10:06 54.43059 -6.23822 34112 ft 487 kts 290°
2026-05-04 10:06 54.44932 -6.34927 34112 ft 486 kts 289°
2026-05-04 10:08 54.51410 -6.73904 34110 ft 483 kts 289°
2026-05-04 10:08 54.53230 -6.85026 34111 ft 482 kts 289°
2026-05-04 10:09 54.55038 -6.96134 34111 ft 481 kts 289°
2026-05-04 10:09 54.56833 -7.07229 34110 ft 481 kts 288°
2026-05-04 10:10 54.58618 -7.18345 34108 ft 481 kts 288°
2026-05-04 10:10 54.60394 -7.29478 34107 ft 481 kts 288°
2026-05-04 10:11 54.62151 -7.40562 34108 ft 481 kts 288°
2026-05-04 10:11 54.63911 -7.51739 34111 ft 482 kts 288°
2026-05-04 10:12 54.65659 -7.62914 34111 ft 482 kts 288°
2026-05-04 10:12 54.67385 -7.74034 34109 ft 482 kts 288°
2026-05-04 10:13 54.69115 -7.85245 34112 ft 482 kts 288°
2026-05-04 10:13 54.70836 -7.96469 34112 ft 482 kts 288°
2026-05-04 10:14 54.72545 -8.07698 34112 ft 482 kts 287°
2026-05-04 10:16 54.78964 -8.50590 34112 ft 479 kts 287°
2026-05-04 10:16 54.80609 -8.61763 34111 ft 478 kts 287°
2026-05-04 10:17 54.82238 -8.72915 34111 ft 477 kts 286°
2026-05-04 10:19 54.88630 -9.17445 34111 ft 475 kts 286°